Showing default

YAM-7, 60504

Orbit data source: Space-Track

YAM-7, 60504 is a payload satellite owned by Loft Orbital (US) in SSO that was launched on Fri, 16 Aug 2024 UTC via an FALCON 9 launch vehicle from the Air Force Western Test Range (AFWTR). Payloads include a variety of satellites, spacecraft, and rockets equipped with specific instruments for various scientific and technological missions. These include communications satellites like Starlink; space stations such as the ISS; scientific satellites like the Hubble; Earth observation satellites from companies like Planet Labs, Umbra, and HawkEye 360; GPS; miniature CubeSats for education and research; and military/defense satellites.

Loading next visibility...
YAM-7 details
Identifier
60504, 2024-149AN
Orbit
SSO
Last TLE update10 hours ago
Origin
Flag of USLoft Orbital (US)
ManufacturerLeoStella
MissionOperational spacecraft
Bus & MotorYAM, Unknown motor
Mass91 kg wet, 91 kg dry
Launch date (UTC)
2024-08-16 (4 months ago)
Launch vehicle
FALCON 9
Launch site
Air Force Western Test Range (AFWTR)
Object type
Payload
Rocket body
Debris
Shape & HBRUnknown
Radar Cross SectionLarge (>1 m²)

Expand to show TLE details & history

TLE from 10 hours ago
0 YAM-7
1 60504U 24149AN  24356.18866431  .00009652  00000-0  43210-3 0  9997
2 60504  97.4307  69.9203 0005438  63.5769 296.6024 15.21464834 19199
Epoch: 2024-12-21T04:31Z
Definitive object data (Epoch: 2024-12-21T04:31:40.596Z)
Latitude-0.00006°
Longitude-88.24225°
Altitude502.839 km
Speed7.614 km/s
True Right ascension04h 39m 40s
True Declination0° 00' 00"
Sunlit
Object was in full shadow at TLE epoch
Visualization TLE readout
Latitude60.98905°
Longitude105.69456°
Altitude509.755 km
Speed7.616 km/s
Apparent Right ascension22h 45m 36s
Apparent Declination23° 49' 32"
Sunlit
Object is in daylight
Visualization observer readout
Local Sidereal Time13:33:05
Azimuth39.264° NE
Elevation-15.264°
Doppler factor1
Orbital elements
Apogee altitude502.126 km
Perigee altitude494.647 km
Semi-major axis6,876.523 km
Eccentricity0.0005438
Inclination97.4307°
RAAN69.9203°
Arg. of periapsis63.5769°
True anomaly296.54667°
Mean anomaly296.6024°
Eccentric anomaly296.57453°
Mean motion3.80618 °/min
BSTAR0.0004321
Orbital period94.58 mins
Loading maneuver chart data...
Loading historical data...
Loading historical data...
Loading historical data...
Loading historical data...
Loading historical data...
Loading historical data...
Loading historical data...

YAM-7 Visibility forecast

Observer location: undefined°, undefined

Span
Click to sort rows by Start time (UTC) header in descending order
Start Az.
Max El. time (UTC)
Max El. Az.
Max El.
End time (UTC)
End Az.
6 mins2024-12-21 17:42:57.206Z24.357° NE2024-12-21 17:45:57.206Z85.36° E37.081°2024-12-21 17:48:57.206Z172.451° S
4 mins2024-12-22 04:21:57.206Z102.526° ESE2024-12-22 04:23:57.206Z60° ENE18.436°2024-12-22 04:25:57.206Z24.741° NE
4 mins2024-12-22 05:55:57.206Z234.052° WSW2024-12-22 05:56:57.206Z258.015° W21.692°2024-12-22 05:59:57.206Z317.312° NNW
|